www.pogodaiklimat.ru

Погода и климат >> Архив погоды >> Россия >> Самарская область >> Самара-Центр


ПОГОДА в Самаре-Центр

  • Прогноз погоды в Самаре-Центр
  • Монитор погоды в Самаре-Центр

АРХИВ ПОГОДЫ в Самаре-Центр

Время (UTC), дата Ветер
(напр.,м/с)
 
Видим.   Явления Облачность Т
(С)
Тd
(С)
f
(%)
Тe
(С)
Тes
(С)
Комфортность P
(гПа)
Po
(гПа)
Тmin
(С)
Tmax
(С)
R
(мм)
R24
(мм)
S
(см)
18 11.09 штиль 0 10 км ясно +12.3 +7.6 73 +12 +12 1032.6 1027.5
21 11.09 штиль 0 10 км ясно +9.2 +6.0 80 +9 +9 1032.8 1027.7
00 12.09 штиль 0 10 км ясно +7.3 +4.8 84 +6 +6 1032.9 1027.8
03 12.09 штиль 0 10 км ясно +7.0 +4.7 85 +6 +6 1032.9 1027.7 +5.9
06 12.09 1 10 км 3/0
[Ac trans]
+16.7 +8.3 58 +18 +23 1032.7 1027.7
09 12.09 ЮВ 2 10 км ясно +23.6 +7.4 35 +24 +33 комфорт 1031.1 1026.2
12 12.09 З 2 10 км ясно +24.8 +5.7 29 +24 +28 комфорт 1029.4 1024.6
15 12.09 1 10 км ясно +19.0 +8.2 49 +21 +21 комфорт 1028.6 1023.7 +25.1
18 12.09 штиль 0 10 км ясно +12.3 +9.3 82 +12 +12 1028.5 1023.5
21 12.09 штиль 0 10 км ясно +8.6 +6.4 86 +8 +8 1027.9 1022.8
00 13.09 штиль 0 10 км ясно +7.4 +5.4 87 +7 +7 1027.7 1022.6
03 13.09 1 10 км ясно +7.2 +5.2 87 +6 +6 1027.3 1022.2 +6.2
06 13.09 Ю 2 10 км ясно +18.3 +10.4 60 +19 +24 1026.6 1021.7
09 13.09 ЮЗ 4 10 км ясно +25.6 +9.0 35 +26 +32 жарко 1024.9 1020.1
12 13.09 ЮЗ 3 10 км 3/3 1000 м
[Cu hum]
+26.1 +9.4 35 +27 +29 жарко 1023.2 1018.4
15 13.09 1 10 км 3/3 1000 м
[Sc]
+20.1 +9.6 51 +23 +23 комфорт 1022.1 1017.2 +26.5
18 13.09 штиль 0 10 км ясно +13.4 +10.6 83 +13 +13 1021.9 1016.9
21 13.09 1 10 км ясно +10.6 +8.4 86 +10 +10 1021.6 1016.6
00 14.09 1 10 км ясно +8.0 +6.1 88 +7 +7 1020.7 1015.6
03 14.09 1 10 км ясно +7.4 +5.5 88 +6 +7 1020.1 1015.0 +6.5
06 14.09 штиль 0 10 км ясно +18.9 +9.1 53 +19 +26 1018.7 1013.8
09 14.09 ЮЗ 3 10 км ясно +26.2 +6.2 28 +26 +33 жарко 1016.3 1011.6
12 14.09 З 5 10 км ясно +26.7 +5.0 25 +26 +28 жарко 1014.9 1010.2
15 14.09 ЮЗ 3 10 км ясно +20.1 +8.1 46 +21 +21 комфорт 1014.2 1009.4 +27.0
18 14.09 штиль 0 10 км 6/0
[Ac trans]
+14.3 +8.9 70 +14 +14 1013.4 1008.5
21 14.09 1 10 км 6/0
[Ac trans]
+12.6 +8.2 75 +13 +13 1012.2 1007.2
00 15.09 С 5 10 км 8/0
[Ac trans]
+16.1 +11.7 75 +15 +15 1012.6 1007.7
03 15.09 1 10 км 9/0
[Ac trans Ci fib]
+13.5 +11.2 86 +14 +14 1012.9 1008.0 +12.0
06 15.09 ЮЗ 1 2000 м слаб. ливневой дождь 10/4 1000 м
[Cb calv As op]
+13.8 +11.9 88 +14 +15 1013.8 1008.9
09 15.09 З 4 10 км {ливн. осадки} 9/4 600 м
[Cb calv Ac trans]
+14.6 +11.6 82 +13 +15 1013.9 1009.0
12 15.09 1 10 км {ливн. осадки} 8/4 600 м
[Cu hum Ac trans Ci fib]
+17.7 +8.9 56 +19 +21 1012.9 1008.0
15 15.09 1 10 км 8/3 600 м
[Cb calv Ac trans Ci fib]
+15.1 +10.1 72 +16 +16 1012.6 1007.7 +18.0 4
18 15.09 СВ 2 10 км 6/0
[Ac trans]
+11.2 +9.4 89 +10 +10 1012.7 1007.7
21 15.09 штиль 0 10 км {дождь} 3/0
[Ac trans Ci fib]
+9.0 +7.1 88 +8 +8 1012.7 1007.7
00 16.09 Ю 1 10 км {дождь} 4/0
[Ac trans]
+7.6 +6.3 91 +7 +7 1012.8 1007.8
03 16.09 ЮЗ 3 10 км 10/4 1000 м
[Sc As op]
+8.7 +6.8 88 +6 +6 1011.8 1006.8 +7.5 0.3
06 16.09 ЮЗ 4 10 км 6/3 1000 м
[Sc Ac trans]
+13.1 +7.8 70 +11 +13 1010.2 1005.3
09 16.09 ЮЗ 7-11
{11}
10 км слаб. дождь 10/5 1000 м
[Sc As op]
+13.5 +7.6 67 +11 +11 1008.9 1004.0
12 16.09 Ю 4
{11}
10 км слаб. дождь 10/5 1000 м
[Sc As op]
+11.6 +9.6 88 +9 +10 1007.0 1002.1
15 16.09 штиль 0 10 км слаб. дождь 10/5 1000 м
[Sc As op]
+11.0 +9.4 90 +10 +10 1005.0 1000.1 +15.1 2
18 16.09 ЮЗ 4 10 км в посл. час дождь 10/5 1000 м
[Sc As op]
+12.9 +9.8 81 +11 +11 1003.5 998.6
21 16.09 ЮЗ 2 10 км 6/3 1000 м
[Sc Ac trans]
+11.9 +8.9 82 +11 +11 1003.2 998.3
00 17.09 ЮЗ 2 10 км 5/0
[Ac trans]
+9.7 +7.8 88 +8 +8 1003.2 998.2
03 17.09 1 10 км 8/0
[Ac trans Ci fib]
+8.8 +7.3 90 +8 +8 1003.6 998.6 +8.2 0.7
06 17.09 ЮЗ 5 10 км 8/0
[Ac trans Ci fib]
+16.4 +9.6 64 +16 +17 1003.6 998.8
09 17.09 ЮЗ 5
{11}
10 км 10/4 1000 м
[Sc As op]
+19.6 +6.7 43 +20 +21 1002.3 997.5
12 17.09 З 5
{11}
10 км 10/4 1000 м
[Sc As op]
+19.5 +7.9 47 +20 +20 1001.7 996.9
15 17.09 З 2 10 км 8/0
[Ac trans Ci fib]
+15.8 +8.8 63 +16 +16 1001.5 996.7 +20.9
18 17.09 Ю 3 10 км 9/0
[Ac trans]
+13.8 +9.6 76 +13 +13 1001.5 996.6
21 17.09 ЮЗ 3 10 км {дождь} 9/3 1000 м
[Sc Ac trans]
+13.6 +10.6 82 +12 +12 1001.5 996.6
00 18.09 ЮЗ 2 10 км {дождь} 8/3 1000 м
[Sc Ac trans]
+12.4 +10.6 89 +11 +11 1001.2 996.3
03 18.09 Ю 2 2000 м дымка 4/0
[Ac trans]
+10.0 +8.6 91 +8 +8 1002.2 997.3 +9.1 1
06 18.09 СЗ 3 10 км ясно +15.4 +7.9 61 +15 +19 1003.2 998.3
09 18.09 З 5 10 км 8/3 600 м
[Cu hum Ci fib]
+17.6 +4.2 41 +17 +20 1003.4 998.6
12 18.09 З 5 10 км 1/1 1000 м
[Sc diur, vesp]
+18.2 +2.9 36 +18 +19 1003.7 998.9
15 18.09 1 10 км 9/4 1000 м
[Cb calv Ci fib]
+13.5 +9.0 74 +14 +14 1002.6 997.7 +18.9

 

Местоположение метеостанции Самара-Центр (Самарская область, Россия): широта 53.18 долгота 50.27 высота над уровнем моря 41 м.

В архиве по умолчанию представлена погода в Самаре-Центр за последнюю неделю. Архивные данные за месяц целиком и за предыдущие месяцы, начиная с января 2011 года, Вы можете получить, выбрав интересующий диапазон дат из раскрывающегося списка и нажав кнопку "Ввод!".


*Определитесь, кто Вы:
робот инопланетянин человек

Внимание! Время в таблицах - всемирное. Для получения местного времени необходимо прибавить поправку, которая равна 4 ч.

Смотрите также архив погоды в соседних городах и на ближайших метеорологических станциях:

Погода в Самаре АМС (Самарская область, Россия) (8 км)
Погода в Самаре (Самарская область, Россия) (8 км)
Погода в Аглосе (Самарская область, Россия) (26 км)
Погода в Курумоче (Самарская область, Россия) (36 км)
Погода в Красносамарском (Самарская область, Россия) (39 км)
Погода в Чапаевске (Самарская область, Россия) (41 км)
Погода в Безенчуке (Самарская область, Россия) (60 км)
Погода в Тольятти (дамба) (Самарская область, Россия) (62 км)
Погода в Богатом (Самарская область, Россия) (68 км)
Погода в Тольятти (Самарская область, Россия) (75 км)

Пояснения к столбцам:

Ветер - указаны скорость ветра в м/с - средняя за 10 мин, порывы в срок и между сроками (в фигурных скобках) и направление, откуда дует ветер: С - северный, СВ - северо-восточный, В - восточный, ЮВ - юго-восточный, Ю - южный, ЮЗ - юго-западный, З - западный, СЗ - северо-западный.
Видимость - горизонтальная дальность видимости в метрах или километрах. При видимости от 1 до 10 км при отсутствии осадков обычно наблюдается дымка, при ухудшении видимости до 1 км и менее - туман. В сухую погоду видимость может ухудшаться дымом, пылью или мглою.
Явления - указаны атмосферные явления, наблюдавшиеся в срок или в последний час перед сроком; фигурными скобками обозначены явления, наблюдавшиеся между сроками (за 1-3 часа до срока); квадратными скобками обозначены град или гололедные отложения с указанием их диаметра в мм.
Облачность - указаны через наклонную черту общая и нижняя облачность в баллах и высота нижней границы облаков в метрах; квадратными скобками обозначены формы облаков: Ci - перистые, Cs - перисто-слоистые, Cc - перисто-кучевые, Ac - высококучевые, As - высокослоистые, Sc - слоисто-кучевые, Ns - слоисто-дождевые, Cu - кучевые, Cb - кучево-дождевые. Подробнее классификацию облаков см. в Атласе облаков (PDF).
T - Температура воздуха - температура, измеренная на высоте 2 м над землей.
Td - Температура точки росы - температура, при понижении до которой содержащийся в воздухе водяной пар достигнет насыщения.
f - Относительная влажность воздуха - влажноcть воздуха, измеренная на высоте 2 м над землей.
Te - Эффективная температура - температура, которую ощущает одетый по сезону человек в тени. Характеристика душности погоды. При расчете учитывается влияние влажности воздуха и скорости ветра на теплоощущения человека.
Tes - Эффективная температура на солнце - температура, которую ощущает человек, с поправкой на солнечный нагрев. Характеристика знойности погоды. Зависит от высоты солнца над горизонтом, облачности и скорости ветра. Ночью, в пасмурную погоду, а также при ветре 12 м/с и более поправка равна нулю.
P - Атмосферное давление - приведенное к уровню моря атмосферное давление.
Po - Атмосферное давление - измеренное на уровне метеостанции атмосферное давление.
Tmin - Минимальная температура - минимум температуры воздуха на высоте 2 м над землей.
Tmax - Максимальная температура - максимум температуры воздуха на высоте 2 м над землей.
R - Количество осадков - Количество выпавших осадков за период времени, мм. При наведении курсора мыши на число - период времени, за который выпало указанное количество осадков.
R24 - Количество осадков - Количество выпавших осадков за 24 часа, мм.
S - Снежный покров - Высота снежного покрова, см. При наведении курсора мыши на число - состояние снежного покрова и степень покрытия местности в баллах.